[[{"header":{"parameterUnit":"m.s-1","parameterCategory":1,"la1":30.2991,"la2":30.254,"lo1":-89.0895,"lo2":-89.0444,"dy":0.0017,"dx":0.0017,"nx":28,"ny":28,"refTime":"2025-07-10T21:00:00:Z","depth":0,"parameterNumber":2,"parameterNumberName":"U-component_of_WINDS"},"data":[0,0,0,0,0,0,0,0,0,0,0,0,0,0,0,0,0,0,0,0,0,0,0,0,0,0,0,0,0,0,0,0,0,0,0,0,0,0,0,0,0,0,0,0,0,0,0,0,0,0,0,0,0,0,0,0,0,0,2.6693,2.6693,0,2.6724,2.6724,2.6725,2.6701,2.67,2.6699,2.6698,2.6733,2.6735,2.6737,0,0,0,0,0,0,0,0,0,0,0,0,0,2.6619,2.662,2.6693,2.6693,2.6694,2.6724,2.6724,2.6725,2.6701,2.67,2.6698,2.6697,2.6733,2.6735,2.6737,0,0,0,0,0,0,0,0,0,0,0,0,0,2.665,2.662,2.6693,2.6685,2.6685,2.6724,2.6724,2.6725,2.6701,2.67,2.6698,2.6696,2.6732,2.6735,2.6738,2.6787,0,0,2.6747,2.6748,0,0,0,0,0,0,0,0,2.6649,2.6653,2.6686,2.6686,2.6686,2.6707,2.6711,2.6746,2.6701,2.6695,2.6698,2.6696,2.6726,2.6729,2.6739,2.6789,2.679,2.6747,2.6749,2.675,2.6751,0,0,0,0,0,0,0,2.6646,2.6652,2.6705,2.6687,2.6686,2.6682,2.6685,2.6718,2.6719,2.6696,2.6694,2.6698,2.6726,2.6736,2.6739,2.6791,2.6747,2.6749,2.6751,2.6752,2.6885,2.6886,0,0,0,0,0,0,2.6644,2.665,2.6704,2.6706,2.6663,2.6685,2.6688,2.6702,2.6719,2.672,2.6699,2.6696,2.6732,2.6736,2.6741,2.68,2.675,2.6753,2.6754,2.6883,2.6885,2.6887,0,0,0,0,0,0,2.6643,2.6649,2.6703,2.6678,2.6684,2.6688,2.6703,2.6703,2.6713,2.6721,2.6722,2.6709,2.6731,2.6737,2.6776,2.6801,2.6754,2.6756,2.6881,2.6884,2.6886,2.692,0,0,0,0,0,0,2.6641,2.6649,2.6666,2.6678,2.6686,2.6736,2.6705,2.6705,2.6718,2.6715,2.6731,2.6732,2.673,2.6772,2.6779,2.6804,2.6759,2.6879,2.6882,2.6885,2.6916,2.6923,2.6929,0,0,0,0,0,2.6638,2.6675,2.6667,2.6674,2.6707,2.6738,2.6742,2.6738,2.672,2.6738,2.6744,2.6731,2.6797,2.6776,2.6784,2.6811,2.6877,2.6881,2.6885,2.6913,2.6922,2.6929,0,0,0,0,0,0,2.6667,2.6676,2.6668,2.6709,2.6723,2.6733,2.6756,2.6747,2.6766,2.6763,2.6759,2.6762,2.6804,2.6811,2.6787,2.686,2.6835,2.684,2.6854,2.6862,2.6868,2.6865,2.6761,0,0,0,0,0,2.6678,2.67,2.6708,2.6744,2.6751,2.6753,2.6766,2.6762,2.6776,2.6782,2.679,2.6806,2.683,2.6846,2.6869,2.6917,2.6922,2.694,2.6947,2.6952,2.6957,2.6985,2.6994,2.69,2.69,2.69,0,0,2.6701,2.6709,2.6724,2.675,2.676,2.6785,2.6758,2.6785,2.6804,2.6786,2.6824,2.6831,2.6848,2.6892,2.6912,2.69,2.6984,2.6957,2.6961,2.6963,2.699,2.6999,2.7006,2.6903,2.6902,2.6902,0,0,2.6756,2.6764,2.6795,2.6806,2.6821,2.6822,2.683,2.6843,2.6846,2.6883,2.6871,2.6895,2.6936,2.695,2.6962,2.7024,2.7014,2.7032,2.7065,2.7093,2.71,2.7107,2.713,2.7138,2.7037,2.7037,2.7037,0,2.6784,2.6819,2.6813,2.6842,2.6855,2.6839,2.6872,2.6883,2.6905,2.6916,2.6901,2.6954,2.6964,2.7012,2.7028,2.7038,2.7048,2.703,2.7099,2.7106,2.7112,2.7134,2.7143,2.7039,2.7039,2.7039,2.7039,0,2.6853,2.6878,2.6902,2.6923,2.6939,2.6969,2.697,2.6987,2.6982,2.6985,2.7024,2.7037,2.7062,2.7074,2.7069,2.7122,2.7114,2.7099,2.7073,2.7123,2.7144,2.7152,2.7042,2.7042,2.7041,2.704,0,0,2.6926,2.6944,2.6953,2.6963,2.698,2.7,2.7031,2.7055,2.707,2.7087,2.7114,2.715,2.7137,2.7152,2.7149,2.7173,2.7223,2.7156,2.7156,2.7168,2.7283,2.7294,2.7304,2.7217,2.7218,2.7219,2.7282,0,2.6983,2.7035,2.7031,2.7081,2.7106,2.7092,2.712,2.7134,2.7138,2.7161,2.7166,2.7193,2.7173,2.7182,2.7205,2.7212,2.7246,2.7207,2.7243,2.7245,2.7239,2.7315,2.7326,2.7385,2.729,2.7292,2.7293,0,2.7055,2.7073,2.7126,2.714,2.715,2.7174,2.7197,2.7218,2.7235,2.7237,2.7253,2.7247,2.7281,2.7254,2.7301,2.7275,2.729,2.7296,2.7298,2.7302,2.7272,2.7321,2.7403,2.7412,2.7305,2.7304,2.7303,0,2.7104,2.7142,2.7179,2.7188,2.7205,2.7223,2.7231,2.7246,2.7261,2.7282,2.7292,2.7317,2.733,2.7351,2.7352,2.7332,2.7401,2.7374,2.7404,2.7404,2.7419,2.7418,2.7505,2.7428,2.7428,2.7428,2.7428,0,2.7168,2.7201,2.7201,2.7224,2.7261,2.7257,2.7295,2.7301,2.7315,2.734,2.7331,2.7355,2.7355,2.738,2.7382,2.7422,2.7428,2.7432,2.7432,2.7433,2.7432,2.7442,2.7439,2.743,2.743,2.7429,2.7429,0,2.7229,2.723,2.7269,2.7282,2.7287,2.7314,2.7326,2.7348,2.7352,2.7384,2.7392,2.7399,2.7428,2.7432,2.7466,2.7467,2.7516,2.7511,2.7509,2.7509,2.7539,2.7537,2.7636,2.765,2.7563,2.7564,2.7565,0,2.7269,2.7294,2.731,2.7326,2.7335,2.736,2.7375,2.7374,2.7391,2.7413,2.7433,2.7461,2.7483,2.7532,2.7541,2.7568,2.7564,2.7597,2.7568,2.7569,2.7566,2.7564,2.7567,2.7603,2.7604,2.7605,2.7605,0,2.7341,2.7341,2.7363,2.7386,2.7405,2.7423,2.744,2.7454,2.7455,2.7475,2.7504,2.7521,2.7557,2.7585,2.7612,2.7623,2.7615,2.7615,2.7623,2.7624,2.7622,2.7625,2.7525,2.7612,2.7612,2.7611,2.7611,2.761,2.7394,2.7416,2.7431,2.7456,2.7469,2.7485,2.7507,2.7514,2.7538,2.7566,2.7564,2.7597,2.7615,2.765,2.7663,2.769,2.7679,2.7691,2.7695,2.7698,2.7701,2.7618,2.7695,2.7695,2.7694,2.7694,2.7694,0,2.7466,2.7475,2.7498,2.7522,2.7543,2.7533,2.7552,2.757,2.7599,2.7616,2.7638,2.7673,2.7701,2.7713,2.7741,2.7761,2.7758,2.7768,2.7767,2.777,2.7709,2.7698,2.777,2.777,2.777,2.777,2.777,2.777,2.7506,2.7543,2.7545,2.7589,2.7598,2.7629,2.7641,2.7657,2.7671,2.771,2.7733,2.774,2.7756,2.7785,2.7811,2.7814,2.7826,2.7838,2.7839,2.7782,2.7774,2.7767,2.7757,2.784,2.784,2.7898,2.7899,2.7899]},{"header":{"parameterUnit":"m.s-1","parameterCategory":1,"la1":30.2991,"la2":30.254,"lo1":-89.0895,"lo2":-89.0444,"dy":0.0017,"dx":0.0017,"nx":28,"ny":28,"refTime":"2025-07-10T21:00:00:Z","depth":0,"parameterNumber":3,"parameterNumberName":"V-component_of_WINDS"},"data":[0,0,0,0,0,0,0,0,0,0,0,0,0,0,0,0,0,0,0,0,0,0,0,0,0,0,0,0,0,0,0,0,0,0,0,0,0,0,0,0,0,0,0,0,0,0,0,0,0,0,0,0,0,0,0,0,0,0,1.7563,1.7563,0,1.7579,1.7579,1.758,1.758,1.758,1.758,1.758,1.7595,1.7596,1.7597,0,0,0,0,0,0,0,0,0,0,0,0,0,1.7529,1.7529,1.7563,1.7563,1.7563,1.7579,1.7579,1.758,1.758,1.758,1.758,1.758,1.7595,1.7596,1.7597,0,0,0,0,0,0,0,0,0,0,0,0,0,1.7544,1.7529,1.7563,1.7566,1.7566,1.7579,1.7579,1.758,1.7581,1.758,1.758,1.758,1.7595,1.7596,1.7597,1.7608,0,0,1.7599,1.76,0,0,0,0,0,0,0,0,1.7543,1.7545,1.7565,1.7565,1.7566,1.7577,1.7573,1.7589,1.7581,1.7575,1.758,1.758,1.759,1.7591,1.7595,1.7609,1.7609,1.76,1.76,1.76,1.7601,0,0,0,0,0,0,0,1.7542,1.7545,1.7569,1.7565,1.7566,1.7565,1.7567,1.7576,1.7584,1.7575,1.7576,1.7578,1.759,1.7594,1.7595,1.7609,1.76,1.76,1.7601,1.7601,1.763,1.763,0,0,0,0,0,0,1.7541,1.7544,1.7569,1.757,1.7554,1.7566,1.7568,1.7574,1.7584,1.7585,1.7578,1.7578,1.7592,1.7594,1.7596,1.7607,1.76,1.7601,1.7602,1.7629,1.763,1.763,0,0,0,0,0,0,1.754,1.7543,1.7568,1.7557,1.756,1.7567,1.7574,1.7574,1.7578,1.7585,1.7586,1.7581,1.7592,1.7594,1.7604,1.7608,1.7602,1.7602,1.7629,1.7629,1.763,1.7631,0,0,0,0,0,0,1.7539,1.7543,1.7548,1.7557,1.756,1.7577,1.7574,1.7575,1.758,1.758,1.7588,1.7589,1.7592,1.7603,1.7605,1.7609,1.7603,1.7629,1.7629,1.763,1.7631,1.7632,1.7632,0,0,0,0,0,1.7538,1.7548,1.7548,1.7551,1.7567,1.7578,1.758,1.7583,1.758,1.7585,1.7589,1.7589,1.7607,1.7604,1.7606,1.761,1.7629,1.7629,1.763,1.7631,1.7631,1.7632,0,0,0,0,0,0,1.754,1.755,1.755,1.7564,1.757,1.7578,1.7584,1.7584,1.7591,1.7591,1.7594,1.7596,1.7605,1.7609,1.7605,1.762,1.7617,1.7618,1.7617,1.7618,1.7619,1.7617,1.7604,0,0,0,0,0,1.7542,1.7551,1.7558,1.7569,1.7572,1.7577,1.7582,1.7584,1.759,1.7593,1.7598,1.7603,1.761,1.7614,1.7621,1.7631,1.7632,1.7635,1.7635,1.7636,1.7637,1.764,1.7641,1.7631,1.7631,1.7631,0,0,1.7547,1.7553,1.7558,1.757,1.7575,1.7582,1.758,1.7588,1.7593,1.7594,1.7603,1.7607,1.7613,1.7622,1.7627,1.7626,1.7639,1.7637,1.7637,1.7637,1.7641,1.7641,1.7642,1.7632,1.7632,1.7632,0,0,1.7559,1.7565,1.7574,1.7578,1.7585,1.7588,1.759,1.7598,1.76,1.7609,1.7609,1.7614,1.7626,1.763,1.7633,1.7642,1.7642,1.7644,1.7648,1.7651,1.7651,1.7652,1.7654,1.7654,1.7645,1.7645,1.7645,0,1.7563,1.7575,1.7578,1.7586,1.759,1.759,1.7598,1.7602,1.7611,1.7613,1.7612,1.7625,1.7629,1.7638,1.764,1.7644,1.7644,1.7644,1.7651,1.7652,1.7652,1.7654,1.7655,1.7645,1.7645,1.7645,1.7645,0,1.7579,1.7587,1.7593,1.7601,1.7606,1.7613,1.7616,1.762,1.7621,1.7623,1.7631,1.7636,1.7642,1.7644,1.7646,1.7653,1.7651,1.7651,1.7648,1.7653,1.7655,1.7656,1.7645,1.7645,1.7645,1.7645,0,0,1.7595,1.7602,1.7604,1.7606,1.7613,1.7619,1.7625,1.7631,1.7633,1.7639,1.7643,1.7652,1.765,1.7654,1.7655,1.7658,1.7662,1.7656,1.7656,1.7656,1.7668,1.7668,1.7669,1.7662,1.7662,1.7662,1.7667,0,1.7606,1.7618,1.762,1.763,1.7636,1.7635,1.764,1.7644,1.7645,1.765,1.7651,1.7656,1.7655,1.7657,1.7659,1.7661,1.7664,1.7661,1.7665,1.7665,1.7663,1.767,1.7671,1.7675,1.7668,1.7668,1.7668,0,1.7621,1.7626,1.7637,1.764,1.7642,1.7647,1.7651,1.7656,1.7659,1.766,1.7662,1.7662,1.7667,1.7664,1.767,1.7667,1.7669,1.7669,1.7669,1.767,1.7667,1.7669,1.7677,1.7677,1.7669,1.7669,1.7669,0,1.7629,1.7638,1.7645,1.7647,1.7652,1.7655,1.7656,1.7659,1.7662,1.7665,1.7666,1.767,1.7672,1.7674,1.7674,1.7673,1.7679,1.7677,1.7679,1.7679,1.7681,1.768,1.7688,1.7682,1.7682,1.7682,1.7682,0,1.7641,1.7647,1.7648,1.7652,1.7658,1.7659,1.7665,1.7666,1.7668,1.7672,1.7671,1.7674,1.7675,1.7677,1.7677,1.7681,1.7682,1.7681,1.7681,1.7681,1.7681,1.7682,1.7681,1.7683,1.7683,1.7683,1.7683,0,1.7651,1.7652,1.7659,1.7662,1.7663,1.7667,1.7669,1.7672,1.7673,1.7677,1.7677,1.7678,1.7681,1.7681,1.7685,1.7685,1.7688,1.7688,1.7687,1.7687,1.7689,1.7688,1.7696,1.7697,1.7692,1.7692,1.7692,0,1.7658,1.7663,1.7665,1.7667,1.7669,1.7673,1.7675,1.7675,1.7677,1.7679,1.7682,1.7684,1.7686,1.769,1.7691,1.7693,1.7692,1.7695,1.7692,1.7691,1.769,1.769,1.769,1.7695,1.7695,1.7695,1.7695,0,1.767,1.767,1.7673,1.7676,1.7678,1.7681,1.7683,1.7684,1.7684,1.7686,1.7689,1.769,1.7693,1.7695,1.7696,1.7697,1.7695,1.7696,1.7696,1.7696,1.7695,1.7694,1.7688,1.7696,1.7696,1.7696,1.7696,1.7696,1.7678,1.7681,1.7683,1.7686,1.7687,1.7688,1.7691,1.7691,1.7693,1.7695,1.7695,1.7697,1.7698,1.7699,1.77,1.7701,1.77,1.7701,1.7701,1.7701,1.77,1.7695,1.7701,1.7701,1.7701,1.7701,1.7701,0,1.7688,1.7689,1.7692,1.7694,1.7696,1.7694,1.7696,1.7697,1.7699,1.77,1.7702,1.7703,1.7704,1.7704,1.7705,1.7705,1.7705,1.7706,1.7705,1.7705,1.7702,1.7701,1.7706,1.7706,1.7706,1.7706,1.7706,1.7706,1.7694,1.7698,1.7698,1.7702,1.7702,1.7705,1.7705,1.7706,1.7706,1.7708,1.7709,1.7709,1.7709,1.7709,1.7709,1.7709,1.7709,1.771,1.7709,1.7706,1.7706,1.7705,1.7704,1.771,1.771,1.7712,1.7712,1.7712]}]]